Hourly Weather Kyzyldala

Today, 29 October, Thursday

Time Temperature Precipitation Wind Pressure Humidity
00:00 +1°C° 0 mm 1 mps 731 mmHg 50%
01:00 +1°C° 0 mm 1 mps 731 mmHg 51%
02:00 +1°C° 0 mm 1 mps 731 mmHg 52%
03:00 +1°C° 0 mm 1 mps 731 mmHg 51%
04:00 +1°C° 0 mm 1 mps 732 mmHg 49%
05:00 +1°C° 0 mm 1 mps 732 mmHg 48%
06:00 +1°C° 0 mm 1 mps 732 mmHg 44%
07:00 +2°C° 0 mm 1 mps 733 mmHg 41%
08:00 +3°C° 0 mm 1 mps 733 mmHg 37%
09:00 +5°C° 0 mm 1 mps 733 mmHg 32%
10:00 +7°C° 0 mm 2 mps 733 mmHg 27%
11:00 +9°C° 0 mm 2 mps 733 mmHg 22%
12:00 +10°C° 0 mm 2 mps 733 mmHg 21%
13:00 +11°C° 0 mm 3 mps 732 mmHg 20%
14:00 +13°C° 0 mm 3 mps 732 mmHg 19%
15:00 +11°C° 0 mm 3 mps 732 mmHg 22%
16:00 +10°C° 0 mm 3 mps 731 mmHg 25%
17:00 +9°C° 0 mm 2 mps 731 mmHg 28%
18:00 +8°C° 0 mm 2 mps 731 mmHg 31%
19:00 +6°C° 0 mm 2 mps 731 mmHg 34%
20:00 +6°C° 0 mm 1 mps 731 mmHg 37%
21:00 +6°C° 0 mm 1 mps 731 mmHg 37%
22:00 +6°C° 0 mm 1 mps 730 mmHg 37%
23:00 +4°C° 0 mm 2 mps 730 mmHg 38%

Tomorrow, 30 October, Friday

Time Temperature Precipitation Wind Pressure Humidity
00:00 +5°C° 0 mm 1 mps 730 mmHg 38%
01:00 +5°C° 0 mm 1 mps 729 mmHg 39%
02:00 +5°C° 0 mm 1 mps 729 mmHg 39%
03:00 +5°C° 0 mm 1 mps 729 mmHg 39%
04:00 +5°C° 0 mm 1 mps 728 mmHg 39%
05:00 +5°C° 0 mm 1 mps 728 mmHg 38%
06:00 +6°C° 0 mm 1 mps 728 mmHg 36%
07:00 +6°C° 0 mm 1 mps 728 mmHg 34%
08:00 +7°C° 0 mm 1 mps 728 mmHg 32%
09:00 +10°C° 0 mm 1 mps 728 mmHg 27%
10:00 +13°C° 0 mm 1 mps 728 mmHg 22%
11:00 +16°C° 0 mm 1 mps 728 mmHg 18%
12:00 +16°C° 0 mm 1 mps 728 mmHg 17%
13:00 +18°C° 0 mm 1 mps 727 mmHg 15%
14:00 +18°C° 0 mm 2 mps 727 mmHg 14%
15:00 +17°C° 0 mm 2 mps 727 mmHg 16%
16:00 +15°C° 0 mm 1 mps 726 mmHg 18%
17:00 +14°C° 0 mm 1 mps 726 mmHg 20%
18:00 +12°C° 0 mm 2 mps 726 mmHg 23%
19:00 +10°C° 0 mm 2 mps 726 mmHg 25%
20:00 +8°C° 0 mm 2 mps 726 mmHg 28%
21:00 +8°C° 0 mm 2 mps 726 mmHg 28%
22:00 +8°C° 0 mm 2 mps 726 mmHg 28%
23:00 +9°C° 0 mm 1 mps 725 mmHg 28%

Day after tomorrow, 31 October, Saturday

Time Temperature Precipitation Wind Pressure Humidity
00:00 +9°C° 0 mm 1 mps 725 mmHg 27%
01:00 +9°C° 0 mm 1 mps 725 mmHg 27%
02:00 +9°C° 0 mm 1 mps 725 mmHg 27%
03:00 +8°C° 0 mm 1 mps 725 mmHg 26%
04:00 +8°C° 0 mm 1 mps 724 mmHg 26%
05:00 +8°C° 0 mm 1 mps 724 mmHg 26%
06:00 +9°C° 0 mm 1 mps 725 mmHg 25%
07:00 +9°C° 0 mm 1 mps 725 mmHg 24%
08:00 +10°C° 0 mm 1 mps 725 mmHg 22%
09:00 +13°C° 0 mm 1 mps 725 mmHg 19%
10:00 +16°C° 0 mm 1 mps 725 mmHg 15%
11:00 +20°C° 0 mm 1 mps 725 mmHg 12%
12:00 +20°C° 0 mm 1 mps 725 mmHg 11%
13:00 +20°C° 0 mm 2 mps 725 mmHg 11%
14:00 +21°C° 0 mm 2 mps 725 mmHg 11%
15:00 +19°C° 0 mm 2 mps 725 mmHg 13%
16:00 +17°C° 0 mm 2 mps 724 mmHg 15%
17:00 +16°C° 0 mm 2 mps 724 mmHg 17%
18:00 +14°C° 0 mm 1 mps 724 mmHg 18%
19:00 +13°C° 0 mm 1 mps 724 mmHg 20%
20:00 +12°C° 0 mm 1 mps 724 mmHg 21%
21:00 +11°C° 0 mm 1 mps 724 mmHg 21%
22:00 +11°C° 0 mm 1 mps 724 mmHg 21%
23:00 +11°C° 0 mm 1 mps 724 mmHg 20%

1 November, Sunday

Time Temperature Precipitation Wind Pressure Humidity
00:00 +11°C° 0 mm 1 mps 724 mmHg 20%
01:00 +11°C° 0 mm 1 mps 723 mmHg 20%
02:00 +10°C° 0 mm 1 mps 723 mmHg 19%
03:00 +10°C° 0 mm 1 mps 723 mmHg 19%
04:00 +10°C° 0 mm 1 mps 723 mmHg 19%
05:00 +10°C° 0 mm 1 mps 723 mmHg 19%
06:00 +11°C° 0 mm 1 mps 724 mmHg 18%
07:00 +11°C° 0 mm 1 mps 724 mmHg 18%
08:00 +12°C° 0 mm 1 mps 724 mmHg 17%
09:00 +15°C° 0 mm 1 mps 724 mmHg 15%
10:00 +18°C° 0 mm 2 mps 724 mmHg 13%
11:00 +20°C° 0 mm 2 mps 724 mmHg 10%
12:00 +21°C° 0 mm 2 mps 724 mmHg 10%
13:00 +23°C° 0 mm 2 mps 724 mmHg 9%
14:00 +24°C° 0 mm 2 mps 724 mmHg 9%
15:00 +21°C° 0 mm 2 mps 723 mmHg 10%
16:00 +19°C° 0 mm 2 mps 723 mmHg 12%
17:00 +17°C° 0 mm 2 mps 723 mmHg 13%
18:00 +16°C° 0 mm 1 mps 723 mmHg 14%
19:00 +15°C° 0 mm 1 mps 723 mmHg 15%
20:00 +13°C° 0 mm 1 mps 723 mmHg 16%
21:00 +13°C° 0 mm 1 mps 723 mmHg 16%
22:00 +12°C° 0 mm 1 mps 723 mmHg 17%
23:00 +12°C° 0 mm 1 mps 722 mmHg 17%

2 November, Monday

Time Temperature Precipitation Wind Pressure Humidity
00:00 +12°C° 0 mm 1 mps 722 mmHg 17%
01:00 +11°C° 0 mm 1 mps 723 mmHg 17%
02:00 +11°C° 0 mm 1 mps 723 mmHg 17%
03:00 +11°C° 0 mm 1 mps 723 mmHg 17%
04:00 +11°C° 0 mm 1 mps 723 mmHg 18%
05:00 +10°C° 0 mm 1 mps 723 mmHg 18%
06:00 +11°C° 0 mm 1 mps 723 mmHg 17%
07:00 +11°C° 0 mm 1 mps 724 mmHg 17%
08:00 +12°C° 0 mm 1 mps 724 mmHg 16%
09:00 +15°C° 0 mm 1 mps 724 mmHg 14%
10:00 +18°C° 0 mm 1 mps 725 mmHg 12%
11:00 +20°C° 0 mm 2 mps 725 mmHg 10%
12:00 +21°C° 0 mm 2 mps 725 mmHg 10%
13:00 +21°C° 0 mm 2 mps 725 mmHg 10%
14:00 +22°C° 0 mm 3 mps 725 mmHg 10%
15:00 +20°C° 0 mm 2 mps 725 mmHg 12%
16:00 +18°C° 0 mm 2 mps 725 mmHg 14%
17:00 +16°C° 0 mm 2 mps 724 mmHg 16%
18:00 +14°C° 0 mm 2 mps 725 mmHg 17%
19:00 +13°C° 0 mm 1 mps 725 mmHg 19%
20:00 +11°C° 0 mm 1 mps 725 mmHg 21%
21:00 +11°C° 0 mm 1 mps 725 mmHg 21%
22:00 +11°C° 0 mm 1 mps 725 mmHg 21%
23:00 +10°C° 0 mm 1 mps 725 mmHg 22%

3 November, Tuesday

Time Temperature Precipitation Wind Pressure Humidity
00:00 +10°C° 0 mm 1 mps 725 mmHg 22%
01:00 +10°C° 0 mm 1 mps 725 mmHg 22%
02:00 +10°C° 0 mm 1 mps 725 mmHg 22%
03:00 +9°C° 0 mm 1 mps 725 mmHg 22%
04:00 +9°C° 0 mm 1 mps 725 mmHg 23%
05:00 +8°C° 0 mm 1 mps 725 mmHg 23%
06:00 +9°C° 0 mm 1 mps 726 mmHg 22%
07:00 +10°C° 0 mm 1 mps 726 mmHg 21%
08:00 +9°C° 0 mm 0 mps 726 mmHg 21%
09:00 +12°C° 0 mm 1 mps 726 mmHg 18%
10:00 +15°C° 0 mm 1 mps 727 mmHg 16%
11:00 +17°C° 0 mm 2 mps 727 mmHg 14%
12:00 +18°C° 0 mm 2 mps 727 mmHg 13%
13:00 +19°C° 0 mm 2 mps 727 mmHg 13%
14:00 +19°C° 0 mm 3 mps 727 mmHg 13%
15:00 +17°C° 0 mm 3 mps 726 mmHg 16%
16:00 +16°C° 0 mm 3 mps 726 mmHg 19%
17:00 +13°C° 0 mm 3 mps 726 mmHg 22%
18:00 +13°C° 0 mm 2 mps 726 mmHg 25%
19:00 +12°C° 0 mm 2 mps 726 mmHg 27%
20:00 +10°C° 0 mm 1 mps 726 mmHg 30%
21:00 +10°C° 0 mm 1 mps 726 mmHg 31%
22:00 +9°C° 0 mm 1 mps 726 mmHg 32%
23:00 +8°C° 0 mm 1 mps 726 mmHg 33%
Show more

We Need Your Consent

Meteoprog and our Service Providers may store and access personal data such as cookies, device identifiers or other similar technologies on your device and process such data to personalise content and ads, as well as provide social media features and to analyse the traffic.

  • Store and/or access information on your device

    Cookies, device identifiers or other information can be stored or accessed on your device for the purposes indicated above.

  • Personalised ads and content, ad and content measurement, audience insights, and products development

    Ads and content can be personalised based on a profile. More data can be added to better personalise ads and content. Ad and content performance can be measured. Insights about the audience who saw the ads and content can be derived. Such data can be used to develop or improve user’s experience, systems and software.

By clicking ‘I Agree’ you will allow the use of indicated cookies, device identifiers, web beacons or other similar technologies. Your settings can be changed in the browser on your device.

For certain purposes, legitimate interests may be relied on, rather than consent. You can read more about this in our Privacy and Cookie Policy.